Location: Sebastopol
(38.4021°N, 122.8239°W)
Time: 15:22:01
(UTC+00:00)

Cosmos 1315 Rocket - Pass Details

Date: 29 October 2020
Orbit: 530 x 567 km, 81.2° (Epoch: 30 November)

Event Time Altitude Azimuth Distance (km) Brightness Sun altitude
Rises 13:17:24 0° 358° (N) 2,766 6.3 -15.8°
Reaches altitude 10° 13:19:40 10° 5° (N) 1,868 5.5 -15.3°
Maximum altitude 13:23:37 44° 78° (ENE) 796 4.1 -14.6°
Drops below altitude 10° 13:27:33 10° 151° (SSE) 1,860 6.0 -13.8°
Sets 13:29:48 0° 157° (SSE) 2,751 6.8 -13.3°
